This is the latest recevied weather packets stored in our database for station/object KD8BMB. If no packets are shown the sender has not sent any weather packets the latest 10 day(s).
| Time | Temp. | Humidity | Pressure | Rain* | Wind** | Luminosity | Snow |
|---|---|---|---|---|---|---|---|
| 1778108623 | 10.56° C | 50% | 1011.9 hPa | 0 mm | - | 31 W/m² | - |
| 1778108319 | 10.56° C | 50% | 1011.7 hPa | 0 mm | - | 39 W/m² | - |
| 1778108016 | 11.11° C | 50% | 1011.6 hPa | 0 mm | - | 50 W/m² | - |
| 1778107713 | 11.11° C | 51% | 1011.7 hPa | 0 mm | - | 69 W/m² | - |
| 1778107410 | 11.11° C | 49% | 1011.8 hPa | 0 mm | - | 81 W/m² | - |
| 1778107107 | 11.11° C | 49% | 1011.8 hPa | 0 mm | - | 105 W/m² | - |
| 1778106802 | 11.11° C | 51% | 1012 hPa | 0 mm | - | 91 W/m² | - |
| 1778106499 | 11.11° C | 49% | 1012 hPa | 0 mm | - | 92 W/m² | - |
| 1778106194 | 11.11° C | 49% | 1012.2 hPa | 0 mm | - | 101 W/m² | - |
| 1778105887 | 11.11° C | 50% | 1012.1 hPa | 0 mm | - | 108 W/m² | - |
| 1778105584 | 11.11° C | 49% | 1012.1 hPa | 0 mm | - | 93 W/m² | - |
| 1778105282 | 11.11° C | 49% | 1012 hPa | 0 mm | - | 111 W/m² | - |
| 1778104976 | 11.11° C | 49% | 1012 hPa | 0 mm | - | 123 W/m² | - |
| 1778104674 | 11.67° C | 48% | 1011.8 hPa | 0 mm | - | 142 W/m² | - |
| 1778104369 | 11.11° C | 49% | 1012 hPa | 0 mm | - | 150 W/m² | - |
| 1778104065 | 11.67° C | 49% | 1012 hPa | 0 mm | - | 179 W/m² | - |
| 1778103763 | 11.11° C | 49% | 1012 hPa | 0 mm | - | 158 W/m² | - |
| 1778103461 | 11.11° C | 49% | 1011.9 hPa | 0 mm | - | 170 W/m² | - |
| 1778103157 | 11.11° C | 49% | 1011.9 hPa | 0 mm | - | 204 W/m² | - |
| 1778102855 | 11.67° C | 48% | 1011.8 hPa | 0 mm | - | 205 W/m² | - |
| 1778102551 | 11.11° C | 49% | 1012.1 hPa | 0 mm | - | 256 W/m² | - |
| 1778102246 | 11.11° C | 50% | 1011.9 hPa | 0 mm | - | 147 W/m² | - |
| 1778101942 | 11.11° C | 49% | 1012 hPa | 0 mm | - | 88 W/m² | - |
| 1778101639 | 11.67° C | 48% | 1011.7 hPa | 0 mm | - | 157 W/m² | - |
| 1778101337 | 11.67° C | 48% | 1011.9 hPa | 0 mm | - | 262 W/m² | - |
* Rain latest hour (hover to see other rain measurements)
** Current wind speed in m/s (hover to see current wind gust speed)